Regional Weather Roundup
Issued by NWS

Home | Current Version | Previous Version | Graphics & Text | Print | Product List | Glossary Off
Versions: 1 2 3 4 5 6 7 8 9 10 11 12 13 14 15 16 17 18 19 20 21 22 23 24 25 26 27 28 29 30 31 32 33 34 35 36 37 38 39 40 41 42 43 44 45 46

000
ASUS43 KDMX 220707
RWRIA

WEATHER ROUNDUP FOR IOWA
NATIONAL WEATHER SERVICE DES MOINES IA
200 AM CDT MON SEP 22 2014

NOTE: "FAIR" INDICATES FEW OR NO CLOUDS BELOW 12,000 FEET WITH NO
SIGNIFICANT WEATHER AND/OR OBSTRUCTIONS TO VISIBILITY.

* - THESE STATIONS ARE NOT NWS STATIONS...THUS NOT UNDER NWS
QUALITY CONTROL.  THEY ALSO DO NOT REPORT WEATHER SUCH
AS PRECIPITATION OR FOG.

IAZ001>003-012>014-020>022-031>034-043>046-220800-
   NORTHWEST IOWA

CITY           SKY/WX    TMP DP  RH WIND       PRES   REMARKS
CARROLL *      CLEAR     45  45 100 W5        30.28R
CHEROKEE *     CLEAR     46  46 100 CALM      30.28S
DENISON *      CLEAR     46  46 100 CALM      30.27R
LE MARS *        N/A     46  45  93 CALM      30.29R
ORANGE CITY *  CLEAR     52  45  76 CALM      30.28R
SHELDON *      CLEAR     45  45 100 E3        30.26F
SIOUX CITY     CLEAR     47  45  93 W5        30.29R
SPENCER        CLEAR     43  41  93 CALM      30.28R
STORM LAKE *   CLEAR     52  50  93 NE5       30.28R
$$

IAZ055>058-069>071-079>083-090>094-220800-
   SOUTHWEST IOWA

CITY           SKY/WX    TMP DP  RH WIND       PRES   REMARKS
ATLANTIC *     CLEAR     46  46 100 CALM      30.28R
AUDUBON *      CLEAR     45  39  81 CALM      30.28F
CLARINDA *     CLEAR     46  46 100 CALM      30.30R
COUNCIL BLFS * CLEAR     55  50  82 CALM      30.28R
CRESTON *      CLEAR     50  46  87 N5        30.28R
HARLAN  *        N/A     46  46 100 CALM      30.32R
LAMONI         CLEAR     48  46  93 W5        30.26R
RED OAK *      CLEAR     46  46 100 CALM      30.29R
SHENANDOAH *   CLEAR     48  46  93 E3        30.29R
$$

IAZ047>049-059>061-072>074-084-220800-
   CENTRAL IOWA

CITY           SKY/WX    TMP DP  RH WIND       PRES   REMARKS
AMES           CLEAR     48  46  93 NW3       30.26R
ANKENY *       CLEAR     50  48  93 CALM      30.26S
CHARITON *     CLEAR     50  48  93 NW7       30.26R
DES MOINES     CLEAR     54  48  80 N5        30.26R
GRINNELL*      CLEAR     48  46  93 NW6       30.26R
KNOXVILLE *    CLEAR     50  48  93 N6        30.24R
MARSHALLTOWN   CLEAR     47  45  93 N5        30.25R
PELLA *        CLEAR     48  46  93 N5        30.26R
PERRY *          N/A     48  46  93 W6        30.27R
$$

IAZ004>006-015-016-023>025-035-036-220800-
   NORTH CENTRAL IOWA

CITY           SKY/WX    TMP DP  RH WIND       PRES   REMARKS
ALGONA *       CLEAR     46  46 100 CALM      30.27S
CLARION *        N/A     46  46 100 N3        30.26S
ESTHERVILLE    CLEAR     44  43  96 W8        30.26S
FORT DODGE *   CLEAR     46  45  93 CALM      30.27S
MASON CITY     CLEAR     46  45  96 W8        30.27R
FOREST CITY *  CLEAR     46  46 100 CALM      30.26S
IOWA FALLS *     N/A     46  45  93 CALM      30.26S
$$

IAZ007>011-017>019-026>030-037>042-050>054-066-220800-
   NORTHEAST IOWA

CITY           SKY/WX    TMP DP  RH WIND       PRES   REMARKS
CEDAR RAPIDS   CLEAR     47  46  97 NW7       30.22R
CHARLES CITY * CLEAR     46  45  93 N3        30.24F
CLINTON *      CLEAR     45  43  93 N7        30.23R
DECORAH *      CLEAR     45  45 100 CALM      30.23R
DUBUQUE        CLEAR     48  45  89 N7        30.22R
MONTICELLO *   CLEAR     46  46 100 CALM      30.22R
OELWEIN *      CLEAR     46  45  93 CALM      30.24R
WATERLOO       CLEAR     47  45  93 NW5       30.23R
$$

IAZ064-065-067-068-078-220800-
   EAST CENTRAL IOWA

CITY           SKY/WX    TMP DP  RH WIND       PRES   REMARKS
DAVENPORT      CLEAR     46  43  89 NW7       30.21R
IOWA CITY        N/A     47  45  93 W3        30.23R
MT. PLEASANT * CLEAR     52  46  82 NW5       30.21S
MUSCATINE *    CLEAR     50  46  87 N6        30.22R
QUAD CITIES    CLEAR     54  46  74 NW3       30.20R
$$

IAZ062-063-075>077-085>089-095>099-220800-
   SOUTHEAST IOWA

CITY           SKY/WX    TMP DP  RH WIND       PRES   REMARKS
BURLINGTON     LGT RAIN  51  48  89 NW3       30.20S
FAIRFIELD *    CLEAR     48  46  93 NW7       30.22S
FORT MADISON * CLEAR     52  48  87 CALM      30.22S
KEOKUK *       CLEAR     54  50  87 CALM      30.21S
OSKALOOSA *      N/A     46  45  93 N6        30.24R
CENTERVILLE *  CLEAR     48  48 100 W5        30.25S
OTTUMWA        CLEAR     50  46  86 NW5       30.23S
WASHINGTON *   CLEAR     48  48 100 NW6       30.22S
$$

ABBREVIATIONS USED IN REMARKS
   TC - TEMPERATURES IN CELSIUS
  WCI - WIND CHILL INDEX
   HX - HEAT INDEX
  VSB - VISIBILITY
$$



USA.gov is the U.S. government's official web portal to all federal, state and local government web resources and services.